Regional Weather Roundup
Issued by NWS

Home | Current Version | Previous Version | Graphics & Text | Print | Product List | Glossary On
Versions: 1 2 3 4 5 6 7 8 9 10 11 12 13 14 15 16 17 18 19 20 21 22 23 24 25 26 27 28 29 30 31 32 33 34 35 36 37 38 39 40 41 42 43 44 45 46 47 48 49 50
000
ASUS43 KLSX 312007
RWRMO

WEATHER SUMMARY FOR MISSOURI
NATIONAL WEATHER SERVICE SPRINGFIELD MO
300 PM CDT MON AUG 31 2015

NOTE: "FAIR" INDICATES FEW OR NO CLOUDS BELOW 12,000 FEET WITH NO
       SIGNIFICANT WEATHER AND/OR OBSTRUCTIONS TO VISIBILITY.
       CURRENT SKY AND/OR WEATHER CONDITIONS ARE NOT AVAILABLE FOR
       CHILLICOTHE AND FARMINGTON.

MOZ001>031-035>038-043-044-053-054-312100-
...NORTHERN AND WESTERN MISSOURI...

CITY           SKY/WX    TMP DP  RH WIND       PRES   REMARKS
KANSAS CTY INT MOSUNNY   90  65  43 S10       29.97F HX  92
KANSAS C DTWN  SUNNY     90  67  46 SW6       29.95F HX  93
LEE`S SUMMIT   SUNNY     88  68  51 S8        29.98F HX  91
ST JOSEPH      MOSUNNY   88  68  51 S6        29.95F HX  91
CHILLICOTHE      N/A     89  72  56 S10       29.97F HX  96
KIRKSVILLE     SUNNY     89  69  51 SW12      29.99F HX  93

$$
MOZ066>068-077>081-088>096-101>105-312100-
...SOUTHWEST MISSOURI...

CITY           SKY/WX    TMP DP  RH WIND       PRES   REMARKS
SPRINGFIELD    SUNNY     88  67  49 SW8       30.03F HX  91
JOPLIN         SUNNY     89  68  49 S10       30.01F HX  93

$$
MOZ032>034-039>042-045>050-055>058-069>072-312100-
...CENTRAL MISSOURI...

CITY           SKY/WX    TMP DP  RH WIND       PRES   REMARKS
COLUMBIA       MOSUNNY   89  70  53 S13       30.01F HX  94
JEFFERSON CITY SUNNY     91  67  44 S13       29.99F HX  94
ROLLA          MOSUNNY   90  69  50 S10       30.03F HX  94
SEDALIA        SUNNY     93  66  40 SW10      30.00F HX  96
WHITEMAN AFB   MOSUNNY   91  68  47 S15       29.97F HX  95
WARRENSBURG    SUNNY     88  66  48 S10       29.98F HX  90
OSAGE BEACH    SUNNY     91  66  43 S9        30.02F HX  94

$$
MOZ051-052-059>065-312100-
...EAST CENTRAL MISSOURI...

CITY           SKY/WX    TMP DP  RH WIND       PRES   REMARKS
ST LOUIS INTL  PTSUNNY   91  69  48 S7        30.03F HX  96
SPIRIT OF STL  PTSUNNY   90  72  55 VRB3      30.01F HX  97
ST CHARLES     MOSUNNY   89  72  56 S6        30.01F HX  96

$$
MOZ072>076-082>087-097>100-106>115-312100-
...SOUTH CENTRAL AND SOUTHEAST MISSOURI...

CITY           SKY/WX    TMP DP  RH WIND       PRES   REMARKS
CAPE GIRARDEAU MOSUNNY   86  69  56 VRB6      30.05F HX  90
FARMINGTON     MOSUNNY   86  73  66 S8        30.08F HX  93
POPLAR BLUFF   MOSUNNY   88  72  58 VRB7      30.04F HX  94
WEST PLAINS    MOSUNNY   87  68  52 S6        30.08F HX  90

$$


USA.gov is the U.S. government's official web portal to all federal, state and local government web resources and services.